Location: Cahas Mountain Overlook
(37.0833°N, 80.1000°W)
Time: 03:41:49
(UTC-05:00)

A-11 Canister half - All Passes

Search period start: 15 February 2026 00:00
Search period end: 25 February 2026 00:00
Orbit: 1512 x 1687 km, 47.2° (Epoch: 13 February)

Date Brightness Start Highest point End Pass type
(mag) Time Alt. Az. Time Alt. Az. Time Alt. Az.
15 Feb - 01:01:01 10° WNW 01:10:33 46° N 01:19:45 10° ENE visible
15 Feb - 03:07:08 10° WNW 03:16:55 67° NNE 03:26:18 10° ESE visible
15 Feb - 05:12:34 10° WNW 05:21:41 49° SW 05:30:29 10° SSE visible
15 Feb - 18:29:35 10° SE 18:32:33 12° ESE 18:35:30 10° ESE visible
15 Feb - 20:26:15 10° SSW 20:35:57 52° SE 20:45:31 10° ENE visible
15 Feb - 22:30:49 10° WSW 22:40:55 67° NNW 22:50:47 10° ENE visible
16 Feb - 00:37:48 10° WNW 00:47:22 47° N 00:56:36 10° ENE night (unlit)
16 Feb - 02:44:01 10° WNW 02:53:49 65° NNE 03:03:13 10° ESE visible
16 Feb - 04:49:26 10° WNW 04:58:41 53° SW 05:07:37 10° SSE visible
16 Feb - 06:59:42 10° WSW 07:01:52 11° WSW 07:04:02 10° SW daylight
16 Feb - 18:09:00 10° ESE 18:09:35 10° ESE 18:10:12 10° ESE daylight
16 Feb - 20:03:20 10° SSW 20:12:55 49° SE 20:22:25 10° ENE visible
16 Feb - 22:07:39 10° WSW 22:17:48 70° NNW 22:27:43 10° ENE visible
17 Feb - 00:14:36 10° WNW 00:24:12 47° N 00:33:29 10° ENE night (unlit)
17 Feb - 02:20:55 10° WNW 02:30:43 62° NNE 02:40:06 10° ESE visible
17 Feb - 04:26:19 10° WNW 04:35:41 56° SW 04:44:43 10° SSE visible
17 Feb - 06:35:27 10° W 06:38:57 13° WSW 06:42:25 10° SW visible
17 Feb - 19:40:25 10° SSW 19:49:54 46° SE 19:59:16 10° ENE visible
17 Feb - 21:44:30 10° WSW 21:54:41 72° NNW 22:04:39 10° ENE visible
17 Feb - 23:51:24 10° WNW 00:01:02 47° N 00:10:22 10° ENE visible
18 Feb - 01:57:47 10° WNW 02:07:35 61° NNE 02:17:00 10° E visible
18 Feb - 04:03:11 10° WNW 04:12:40 60° SW 04:21:49 10° SE visible
18 Feb - 06:11:37 10° W 06:16:01 14° WSW 06:20:23 10° SSW visible
18 Feb - 19:17:32 10° SSW 19:26:52 43° SE 19:36:08 10° ENE visible
18 Feb - 21:21:22 10° WSW 21:31:34 75° NNW 21:41:35 10° ENE visible
18 Feb - 23:28:11 10° WNW 23:37:51 47° N 23:47:14 10° ENE visible
19 Feb - 01:34:40 10° WNW 01:44:28 59° NNE 01:53:53 10° E visible
19 Feb - 03:40:04 10° WNW 03:49:40 64° SW 03:58:53 10° SE visible
19 Feb - 05:47:58 10° W 05:53:05 16° WSW 05:58:09 10° SSW visible
19 Feb - 18:54:41 10° SSW 19:03:51 40° SE 19:12:58 10° ENE visible
19 Feb - 20:58:14 10° WSW 21:08:27 78° NNW 21:18:30 10° ENE visible
19 Feb - 23:04:58 10° W 23:14:41 48° N 23:24:07 10° ENE visible
20 Feb - 01:11:32 10° WNW 01:21:20 57° NNE 01:30:46 10° E night (unlit)
20 Feb - 03:16:57 10° WNW 03:26:39 68° SW 03:35:57 10° SE visible
20 Feb - 05:24:26 10° W 05:30:10 18° WSW 05:35:48 10° SSW visible
20 Feb - 18:31:51 10° SSW 18:40:51 37° SE 18:49:48 10° ENE visible
20 Feb - 20:35:07 10° WSW 20:45:21 81° NNW 20:55:27 10° ENE visible
20 Feb - 22:41:46 10° W 22:51:31 48° N 23:01:00 10° ENE visible
21 Feb - 00:48:24 10° WNW 00:58:12 56° NNE 01:07:38 10° E night (unlit)
21 Feb - 02:53:50 10° WNW 03:03:37 72° SW 03:13:00 10° SE visible
21 Feb - 05:00:59 10° W 05:07:13 20° SW 05:13:21 10° SSW visible
21 Feb - 18:09:02 10° S 18:17:50 35° SE 18:26:37 10° ENE daylight
21 Feb - 20:12:00 10° WSW 20:22:14 85° NNW 20:32:22 10° ENE visible
21 Feb - 22:18:33 10° W 22:28:20 49° N 22:37:53 10° ENE visible
22 Feb - 00:25:15 10° WNW 00:35:04 54° NNE 00:44:30 10° E visible
22 Feb - 02:30:44 10° WNW 02:40:35 76° SW 02:50:02 10° SE visible
22 Feb - 04:37:35 10° W 04:44:17 21° SW 04:50:51 10° S visible
22 Feb - 17:46:15 10° S 17:54:50 32° SE 18:03:25 10° ENE daylight
22 Feb - 19:48:54 10° SW 19:59:09 88° NW 20:09:18 10° ENE visible
22 Feb - 21:55:21 10° W 22:05:10 50° N 22:14:45 10° ENE visible
23 Feb - 00:02:06 10° WNW 00:11:55 53° NNE 00:21:22 10° E visible
23 Feb - 02:07:37 10° WNW 02:17:33 79° SW 02:27:03 10° SE visible
23 Feb - 04:14:14 10° WNW 04:21:20 24° SW 04:28:17 10° S visible
23 Feb - 17:23:30 10° S 17:31:50 30° SE 17:40:10 10° ENE daylight
23 Feb - 19:25:50 10° SW 19:36:03 88° SE 19:46:14 10° ENE visible
23 Feb - 21:32:09 10° W 21:41:59 51° NNW 21:51:38 10° ENE visible
23 Feb - 23:38:57 10° WNW 23:48:45 52° NNE 23:58:13 10° E visible
24 Feb - 01:44:31 10° WNW 01:54:29 83° SW 02:04:03 10° SE night (unlit)
24 Feb - 03:50:55 10° WNW 03:58:23 26° SW 04:05:41 10° S visible
24 Feb - 17:00:48 10° S 17:08:50 28° SE 17:16:55 10° ENE daylight
24 Feb - 19:02:45 10° SW 19:12:58 85° SE 19:23:08 10° ENE visible
24 Feb - 21:08:56 10° W 21:18:49 52° NNW 21:28:32 10° ENE visible
24 Feb - 23:15:48 10° WNW 23:25:36 51° NNE 23:35:04 10° E visible
